Temp
83 79 74 75 75 74 74 74 74 75 75 76 76 76 76 76 76 76 76 76 77 77 77 77 76 76 76 75 74 74 74 73 74 74 76 77 77 77 76 75 74 76 75
83 79 74 74 74 74 74 74 75 75 76 76 76 76 76 76 76 76 76 76 77 78 77 77 76 76 75 74 74 73 73 73 73 74 75 76 76 76 76 75 74 75 75
82 80 77 74 74 74 75 75 75 75 76 76 76 76 76 76 76 76 76 76 76 77 77 76 77 76 74 73 73 73 73 73 73 73 74 76 76 76 75 74 74 75 75
83 79 78 73 74 74 74 75 75 76 76 76 76 75 75 75 75 76 75 75 76 76 76 76 75 74 72 71 71 72 72 73 72 73 77 80 80 75 75 74 73 73 74
83 82 78 73 73 74 74 74 75 75 75 75 75 75 75 75 75 74 74 74 75 75 75 74 73 71 70 69 69 70 71 71 71 74 76 74 73 75 74 73 72 72 72
83 84 72 71 72 73 74 74 74 74 74 74 74 74 74 74 74 73 73 73 73 73 73 72 70 69 68 68 68 69 69 69 70 78 75 73 72 73 73 71 70 70 71
85 78 74 71 72 73 74 74 74 74 74 74 73 74 73 73 72 72 71 72 71 71 71 70 69 68 67 67 68 68 68 69 76 75 73 70 69 72 72 71 70 70 70
79 76 74 72 72 73 73 74 74 74 73 72 72 72 72 72 71 71 70 70 70 69 69 68 67 67 67 67 67 67 67 69 78 74 72 69 70 71 71 70 69 69 70
78 76 75 74 74 71 71 70 70 71 70 70 70 70 70 69 69 69 69 69 68 68 67 67 66 66 66 66 66 66 66 67 70 70 72 68 70 70 70 70 69 68 69
76 75 74 73 72 71 70 69 69 69 69 69 69 68 68 68 68 68 68 67 67 67 66 66 65 65 65 66 66 67 67 67 71 67 65 67 69 69 69 68 68 68 69
73 73 73 72 71 70 69 69 68 68 68 68 68 67 66 68 68 68 66 66 66 65 65 65 65 65 65 66 67 68 67 69 67 64 62 66 68 68 67 67 68 68 69
69 71 72 71 70 69 71 67 68 69 68 69 68 66 69 69 69 68 64 65 65 65 65 65 65 65 64 63 64 67 66 67 64 61 60 64 66 67 67 67 67 67 67
70 70 72 71 70 69 69 68 68 69 69 69 68 67 68 67 63 63 59 61 59 63 62 63 62 63 64 64 64 64 65 65 60 57 58 61 63 65 65 66 66 67 66
67 68 71 71 69 70 70 69 70 71 70 69 69 69 66 65 62 63 63 63 63 62 64 63 61 62 62 64 65 64 64 64 60 56 55 59 60 63 64 65 65 66 65
66 68 69 71 69 71 70 71 72 72 72 71 70 68 66 64 63 64 64 64 64 64 63 62 60 62 62 63 63 63 63 62 61 57 52 58 59 60 61 63 64 65 64
69 67 70 70 70 71 71 71 72 72 71 70 68 67 66 65 63 63 63 63 63 64 63 62 60 61 60 60 60 62 62 61 60 57 55 52 58 58 58 60 62 64 63
70 69 68 69 70 69 71 71 71 70 71 68 67 65 66 65 63 62 61 61 62 61 60 60 60 60 59 62 59 60 60 59 59 58 55 54 53 56 57 58 59 60 59
72 68 69 71 69 69 70 71 71 70 68 67 65 65 64 64 63 62 61 61 60 59 59 59 59 58 58 58 57 58 57 57 57 56 56 55 54 54 55 57 57 57 57
75 70 68 70 68 68 69 69 68 66 67 66 64 63 62 62 63 61 61 59 60 59 59 59 58 58 56 57 59 57 57 56 56 60 56 55 54 54 51 55 55 55 56
76 72 69 70 69 68 68 67 67 65 65 65 64 63 61 60 61 60 60 58 58 58 57 57 57 58 57 57 64 58 55 55 55 53 54 57 54 54 53 50 49 51 55
77 71 70 69 68 68 66 65 64 62 64 64 64 62 61 60 60 59 58 57 58 57 56 56 54 54 54 56 53 52 51 53 52 53 54 53 54 53 52 51 50 49 51
77 71 69 68 67 68 67 67 65 64 64 64 63 61 61 60 58 59 57 56 57 56 55 54 54 52 52 54 51 50 45 47 51 53 52 52 49 51 52 52 51 51 49
75 73 70 69 68 68 68 68 66 64 62 61 60 58 60 59 58 58 57 56 56 54 52 53 53 53 49 50 52 49 47 45 47 49 50 48 48 47 48 50 51 51 49
75 73 72 70 67 67 67 66 64 62 59 60 59 59 59 59 58 58 57 56 54 54 52 52 54 52 51 48 49 55 50 48 45 40 46 47 48 49 47 47 48 49 49
76 73 71 69 67 66 66 66 63 61 60 60 58 57 57 57 57 57 55 54 53 52 52 51 50 51 51 49 49 48 48 47 47 44 40 42 46 47 47 47 46 47 49
73 70 70 67 66 65 64 62 62 60 58 58 57 56 55 55 55 55 55 53 52 52 50 49 50 50 49 50 49 49 48 46 44 43 42 43 42 44 47 46 46 45 46
MSLP
1007.40 1008.46 1009.55 1010.16 1010.88 1011.37 1011.76 1012.22 1012.70 1013.08 1013.26 1013.58 1013.77 1013.94 1014.20 1014.40 1014.64 1014.86 1015.01 1015.14 1015.24 1015.42 1015.62 1015.83 1015.96 1016.08 1016.16 1016.25 1016.32 1016.35 1016.36 1016.22 1016.08 1016.10 1016.27 1016.20 1016.39 1016.18 1016.20 1016.18 1016.25 1016.16 1016.35
1007.10 1008.34 1009.42 1010.08 1010.76 1011.41 1011.81 1012.29 1012.73 1013.09 1013.39 1013.62 1013.94 1014.11 1014.37 1014.65 1014.87 1015.07 1015.21 1015.31 1015.41 1015.57 1015.80 1016.00 1016.18 1016.34 1016.44 1016.50 1016.55 1016.53 1016.42 1016.21 1015.96 1016.04 1016.48 1016.59 1016.72 1016.43 1016.24 1016.44 1016.50 1016.41 1016.47
1007.34 1008.48 1009.47 1010.13 1010.73 1011.48 1011.87 1012.32 1012.70 1013.16 1013.52 1013.71 1014.08 1014.32 1014.55 1014.86 1015.09 1015.25 1015.34 1015.45 1015.60 1015.76 1015.94 1016.13 1016.25 1016.48 1016.65 1016.72 1016.75 1016.68 1016.49 1016.23 1016.06 1016.04 1016.44 1016.51 1016.74 1016.56 1016.64 1016.66 1016.57 1016.42 1016.42
1007.43 1008.73 1009.51 1010.32 1010.79 1011.48 1011.90 1012.36 1012.75 1013.18 1013.59 1013.92 1014.16 1014.49 1014.80 1015.00 1015.30 1015.45 1015.61 1015.67 1015.77 1015.95 1016.13 1016.29 1016.48 1016.74 1016.93 1016.95 1016.89 1016.79 1016.61 1016.35 1016.18 1016.33 1015.76 1016.09 1016.16 1016.88 1016.94 1017.02 1016.94 1016.84 1016.67
1007.64 1008.49 1009.60 1010.42 1010.90 1011.52 1011.96 1012.38 1012.79 1013.18 1013.66 1014.08 1014.29 1014.61 1015.01 1015.31 1015.47 1015.74 1015.95 1016.04 1016.10 1016.27 1016.43 1016.68 1016.93 1017.13 1017.25 1017.28 1017.21 1017.07 1016.90 1016.58 1016.23 1016.42 1016.13 1016.64 1017.04 1017.29 1017.40 1017.45 1017.35 1017.21 1017.02
1007.44 1008.29 1009.92 1010.46 1011.00 1011.66 1012.03 1012.43 1012.88 1013.25 1013.72 1014.09 1014.54 1014.78 1015.14 1015.54 1015.82 1016.07 1016.27 1016.45 1016.53 1016.69 1016.92 1017.18 1017.38 1017.43 1017.57 1017.52 1017.35 1017.20 1017.05 1016.71 1016.23 1016.16 1016.76 1017.30 1017.77 1017.85 1017.88 1017.95 1017.89 1017.64 1017.27
1007.23 1008.50 1009.81 1010.56 1011.05 1011.69 1012.13 1012.54 1012.85 1013.24 1013.64 1014.07 1014.61 1015.05 1015.30 1015.68 1016.14 1016.36 1016.56 1016.78 1016.92 1017.04 1017.36 1017.52 1017.66 1017.69 1017.90 1017.82 1017.61 1017.41 1017.16 1016.77 1016.38 1016.58 1017.25 1017.94 1018.30 1018.44 1018.40 1018.48 1018.35 1018.13 1017.78
1007.51 1008.73 1009.81 1010.60 1011.25 1011.62 1012.19 1012.59 1012.85 1013.19 1013.65 1014.08 1014.60 1015.15 1015.69 1016.05 1016.37 1016.70 1016.90 1017.10 1017.32 1017.57 1017.69 1017.99 1018.06 1018.04 1018.04 1017.96 1017.88 1017.60 1017.41 1017.19 1016.72 1017.27 1017.87 1018.59 1018.93 1018.93 1018.95 1018.96 1018.68 1018.51 1018.19
1008.06 1009.14 1009.89 1010.76 1011.22 1011.57 1012.14 1012.66 1013.08 1013.41 1013.90 1014.35 1014.75 1015.20 1015.99 1016.35 1016.60 1016.90 1017.19 1017.42 1017.66 1017.85 1017.99 1018.14 1018.36 1018.36 1018.35 1018.23 1018.07 1017.85 1017.57 1017.38 1017.37 1018.01 1018.50 1019.18 1019.41 1019.47 1019.41 1019.23 1019.11 1018.98 1018.52
1008.56 1009.40 1010.08 1010.77 1011.26 1011.71 1012.33 1012.89 1013.35 1013.75 1014.10 1014.56 1014.88 1015.58 1016.13 1016.49 1016.85 1017.16 1017.30 1017.68 1017.88 1018.01 1018.17 1018.28 1018.49 1018.53 1018.43 1018.27 1018.18 1018.04 1017.85 1017.60 1018.07 1018.87 1019.66 1019.86 1019.90 1019.83 1019.82 1019.70 1019.54 1019.37 1018.93
1009.06 1009.65 1010.14 1010.92 1011.38 1011.89 1012.43 1013.06 1013.61 1014.04 1014.38 1014.69 1015.19 1015.71 1016.23 1016.44 1016.72 1017.24 1017.56 1017.74 1018.00 1018.18 1018.34 1018.38 1018.47 1018.60 1018.56 1018.37 1018.22 1018.18 1018.03 1018.11 1018.76 1019.73 1020.55 1020.44 1020.24 1020.19 1020.19 1020.00 1019.77 1019.53 1019.30
1009.02 1009.59 1010.10 1010.80 1011.49 1011.90 1012.41 1013.04 1013.62 1014.10 1014.47 1014.67 1015.24 1015.68 1015.55 1015.94 1016.28 1017.07 1017.75 1018.14 1018.10 1018.23 1018.38 1018.44 1018.44 1018.61 1018.63 1018.60 1018.33 1018.29 1018.19 1018.76 1019.57 1020.64 1021.34 1020.98 1020.72 1020.60 1020.46 1020.35 1020.09 1019.91 1019.77
1008.64 1009.42 1009.83 1010.48 1011.04 1011.68 1012.36 1012.90 1013.39 1013.87 1014.21 1014.45 1014.81 1015.20 1015.37 1015.73 1016.51 1017.18 1017.76 1017.88 1018.19 1018.27 1018.31 1018.33 1018.47 1018.44 1018.40 1018.31 1018.58 1018.63 1018.52 1019.29 1020.30 1021.44 1021.84 1021.56 1021.32 1021.06 1020.81 1020.68 1020.49 1020.28 1020.22
1008.46 1009.14 1009.52 1010.03 1010.62 1011.24 1011.85 1012.53 1012.92 1013.23 1013.55 1013.90 1014.35 1014.55 1014.95 1015.42 1016.08 1016.74 1017.20 1017.36 1017.46 1017.71 1017.78 1017.82 1018.26 1018.55 1018.72 1018.73 1018.91 1019.01 1018.98 1019.46 1020.52 1021.64 1022.01 1021.93 1021.90 1021.67 1021.39 1021.19 1020.98 1020.59 1020.72
1008.27 1008.80 1009.32 1009.78 1010.20 1010.73 1011.24 1011.78 1012.17 1012.54 1012.80 1013.26 1013.79 1014.20 1014.71 1015.36 1015.75 1015.78 1016.18 1016.66 1016.89 1017.24 1017.53 1017.88 1018.38 1018.54 1018.77 1018.92 1019.19 1019.39 1019.49 1019.64 1020.36 1021.32 1022.04 1022.20 1022.26 1022.23 1022.02 1021.73 1021.46 1021.15 1021.25
1007.59 1008.26 1008.84 1009.33 1009.83 1010.24 1010.71 1011.18 1011.55 1011.79 1012.32 1012.90 1013.60 1014.08 1014.58 1014.89 1015.37 1015.63 1015.98 1016.39 1016.71 1017.06 1017.38 1017.76 1018.25 1018.38 1018.68 1019.09 1019.47 1019.58 1019.80 1020.02 1020.35 1021.25 1021.96 1022.40 1022.49 1022.55 1022.48 1022.27 1021.88 1021.61 1021.77
1006.57 1007.72 1008.40 1008.92 1009.57 1009.94 1010.21 1010.62 1011.04 1011.50 1012.13 1012.81 1013.42 1013.99 1014.29 1014.64 1015.20 1015.66 1016.04 1016.38 1016.72 1017.01 1017.41 1017.86 1018.08 1018.40 1018.82 1018.94 1019.62 1019.82 1020.12 1020.47 1020.71 1020.94 1021.86 1022.23 1022.76 1022.74 1022.64 1022.51 1022.37 1022.35 1022.64
1005.60 1006.72 1007.96 1008.45 1008.89 1009.43 1009.87 1010.30 1010.78 1011.16 1011.86 1012.63 1013.21 1013.74 1014.17 1014.54 1015.04 1015.45 1016.04 1016.32 1016.57 1017.24 1017.58 1017.93 1018.26 1018.43 1018.76 1019.11 1019.44 1019.65 1020.10 1020.59 1020.97 1021.26 1021.55 1021.94 1022.54 1022.70 1022.72 1022.65 1022.77 1023.01 1023.24
1004.25 1005.66 1007.10 1007.73 1008.29 1008.93 1009.64 1010.17 1010.64 1011.13 1011.76 1012.30 1013.04 1013.62 1014.13 1014.53 1014.88 1015.30 1015.79 1016.18 1016.54 1017.07 1017.31 1017.64 1017.92 1018.23 1018.63 1018.97 1019.37 1019.63 1020.08 1020.62 1020.80 1021.19 1021.72 1022.08 1022.22 1022.35 1022.75 1022.78 1022.97 1023.13 1023.34
1003.05 1004.70 1006.04 1006.94 1007.83 1008.70 1009.25 1010.05 1010.56 1011.09 1011.56 1012.00 1012.72 1013.30 1014.01 1014.48 1014.80 1015.10 1015.54 1016.20 1016.48 1016.94 1017.30 1017.52 1017.80 1018.09 1018.54 1018.81 1019.17 1019.84 1020.12 1020.55 1020.79 1021.42 1021.66 1021.81 1022.14 1022.36 1022.36 1022.68 1023.08 1023.16 1023.38
1002.11 1003.88 1004.89 1005.88 1007.02 1008.22 1009.06 1009.78 1010.22 1010.61 1011.17 1011.80 1012.43 1012.97 1013.75 1014.33 1014.67 1014.92 1015.39 1016.12 1016.36 1016.76 1017.24 1017.53 1017.92 1018.22 1018.52 1018.76 1019.48 1020.28 1020.62 1020.83 1021.11 1021.42 1021.50 1021.79 1021.98 1022.26 1022.45 1022.46 1022.74 1023.14 1023.27
1000.89 1003.09 1004.14 1005.07 1005.95 1007.35 1008.32 1009.32 1010.05 1010.47 1010.96 1011.68 1012.19 1012.90 1013.49 1014.10 1014.38 1014.63 1015.23 1015.98 1016.18 1016.53 1017.11 1017.50 1017.94 1018.49 1018.72 1018.77 1019.41 1020.07 1020.71 1021.22 1021.22 1021.30 1021.52 1022.00 1022.25 1022.17 1022.36 1022.81 1022.96 1023.14 1023.28
1000.08 1001.49 1003.31 1004.37 1005.28 1006.35 1007.73 1009.00 1009.76 1010.36 1010.94 1011.55 1012.05 1012.74 1013.34 1013.92 1014.33 1014.55 1014.91 1015.56 1015.98 1016.39 1017.08 1017.54 1017.87 1018.18 1018.80 1019.00 1019.08 1019.49 1019.65 1019.94 1020.83 1021.20 1021.46 1021.87 1022.22 1022.46 1022.56 1022.82 1023.08 1023.39 1023.63
998.92 1000.62 1002.35 1003.87 1005.04 1006.10 1007.09 1008.01 1009.06 1009.62 1010.15 1010.91 1011.75 1012.49 1013.09 1013.58 1014.15 1014.34 1014.79 1015.25 1015.81 1016.28 1016.87 1017.39 1017.77 1018.01 1018.34 1019.01 1019.32 1019.19 1019.31 1019.49 1019.89 1021.22 1021.63 1021.69 1022.01 1022.20 1022.65 1022.78 1023.13 1023.50 1023.73
998.27 999.71 1001.55 1003.30 1004.56 1005.64 1006.52 1007.19 1008.37 1009.35 1009.87 1010.47 1011.28 1012.17 1012.93 1013.46 1013.96 1014.25 1014.70 1015.17 1015.68 1016.08 1016.61 1017.16 1017.62 1017.88 1018.11 1018.59 1018.98 1019.31 1019.48 1019.54 1019.72 1020.19 1021.08 1021.66 1021.83 1021.88 1022.42 1022.81 1023.18 1023.39 1023.69
999.07 1000.18 1001.29 1002.64 1004.19 1005.12 1006.00 1006.96 1007.76 1008.71 1009.56 1010.20 1010.89 1011.67 1012.36 1013.05 1013.75 1014.22 1014.56 1015.08 1015.47 1015.93 1016.36 1017.03 1017.67 1017.99 1018.14 1018.26 1018.74 1019.17 1019.57 1019.84 1020.07 1020.33 1020.85 1021.07 1021.49 1022.07 1022.23 1022.46 1023.10 1023.31 1023.47
Wind_Speed
17 20 21 19 17 15 15 14 12 12 13 12 11 10 10 10 9 9 10 10 11 12 12 12 12 11 11 11 10 9 7 5 4 2 5 9 9 12 13 10 12 11 11
21 20 21 20 18 16 15 15 13 13 13 12 10 9 9 8 8 8 8 8 10 11 12 11 10 10 10 9 8 6 5 5 7 5 5 8 10 14 16 11 7 8 10
20 18 19 19 19 16 16 15 15 14 12 12 11 10 10 9 10 10 8 8 9 11 12 11 10 8 8 8 7 6 6 7 9 11 2 5 11 19 18 15 17 10 9
20 16 17 17 18 17 16 16 15 14 12 11 12 11 10 10 10 12 10 10 11 11 11 10 12 9 10 10 9 8 9 10 11 11 4 8 13 18 18 19 19 19 15
19 16 16 17 18 17 15 15 15 14 12 11 12 13 11 10 11 12 12 12 12 11 11 11 10 11 11 10 9 9 10 12 13 7 13 14 11 17 20 19 17 18 17
19 17 19 17 17 16 15 15 15 14 12 12 12 13 13 13 13 13 13 12 13 13 12 12 11 11 10 9 8 9 10 12 14 8 13 15 12 18 21 21 22 22 19
18 19 17 16 17 16 15 15 16 15 13 12 15 13 15 15 12 13 13 12 12 13 11 11 11 11 10 9 9 10 10 13 8 8 15 13 12 19 20 21 20 19 21
18 17 17 16 15 16 15 14 13 13 13 16 18 16 14 13 14 13 13 12 12 11 11 10 10 10 9 9 8 8 10 10 5 12 14 11 17 16 18 18 19 20 19
17 15 14 14 14 13 13 13 13 15 17 17 17 18 14 14 14 14 13 12 11 10 10 10 9 9 8 7 6 7 10 12 7 12 13 8 14 17 16 18 19 19 17
13 14 14 11 10 10 10 14 14 16 17 18 18 17 15 15 14 14 14 11 11 10 10 10 8 7 7 6 3 6 10 12 14 13 9 7 15 16 17 18 18 18 19
9 13 13 11 11 10 10 11 14 16 17 18 17 18 14 8 9 10 11 11 10 9 8 8 7 6 4 4 2 3 7 6 12 10 6 13 15 15 17 16 17 18 18
11 12 13 13 12 12 9 10 10 11 9 9 10 11 9 8 8 10 10 9 10 9 8 7 7 7 5 3 2 1 3 11 10 9 5 12 14 15 16 15 17 17 18
13 9 13 13 13 12 10 8 6 6 7 7 10 10 6 7 6 6 4 5 4 8 5 5 5 2 6 5 5 4 0 10 8 7 7 12 14 14 15 15 16 16 16
15 13 12 14 14 13 10 9 9 8 8 8 9 9 6 5 5 7 6 7 6 5 4 4 4 4 4 4 5 4 6 9 8 6 6 12 13 14 14 15 14 15 18
15 15 14 14 14 12 14 11 10 9 9 8 8 6 6 5 5 5 5 5 4 5 3 4 5 5 4 4 4 5 5 6 12 7 3 12 13 13 14 14 14 14 16
18 17 17 15 15 11 12 13 9 7 7 7 7 6 8 5 5 4 5 4 4 4 4 4 5 4 5 5 4 4 5 6 7 10 6 5 13 13 14 14 14 15 16
17 17 17 16 15 12 11 9 7 5 7 6 7 8 7 6 6 6 5 5 4 4 6 5 1 4 4 5 6 5 5 6 5 6 7 7 6 13 15 14 15 17 17
19 20 17 15 17 15 12 9 8 7 6 6 6 6 7 7 7 6 5 4 6 5 5 5 4 4 5 5 5 5 5 6 6 6 5 4 5 5 10 14 14 15 16
22 22 21 19 17 16 13 9 8 8 7 6 7 6 7 7 7 5 5 4 6 4 4 4 2 4 3 4 4 4 5 5 5 6 6 6 3 4 5 11 13 14 15
17 22 21 17 17 15 9 9 6 7 6 7 8 7 8 5 7 5 5 6 5 5 4 3 3 2 4 5 6 5 4 4 5 5 4 6 5 4 4 7 5 7 14
16 23 23 21 18 14 10 11 9 10 8 8 7 10 10 7 7 6 5 6 5 5 4 5 3 3 1 3 5 3 3 4 2 5 3 4 3 6 5 4 4 4 4
17 22 22 21 21 16 11 10 8 9 7 7 7 10 10 9 7 6 7 6 6 5 7 5 5 3 2 3 4 5 4 2 3 3 5 5 2 2 5 6 4 6 5
18 22 22 21 20 18 16 10 8 7 6 7 7 9 9 9 7 6 7 6 5 6 5 4 4 6 4 1 2 3 3 4 6 3 4 4 4 4 2 6 5 5 5
20 19 20 19 19 16 17 14 14 11 10 8 8 8 8 10 9 6 7 6 6 5 6 5 3 3 5 4 1 1 2 2 3 3 3 5 5 5 3 1 5 5 4
18 19 20 19 18 17 16 13 12 11 8 6 8 11 9 8 9 7 7 7 6 5 6 6 4 2 2 4 3 3 2 1 2 2 4 3 3 4 5 4 4 3 5
12 12 16 19 16 17 16 10 13 14 11 9 11 10 10 9 8 8 8 6 6 6 7 6 4 3 1 3 2 2 1 1 2 1 1 3 4 3 4 5 5 3 4
Wind_Direction
136 140 140 138 137 136 132 130 129 123 118 114 111 111 112 111 112 109 104 105 103 99 93 87 81 76 73 68 63 58 47 26 346 10 78 81 69 60 46 31 10 49 40
132 143 140 140 139 140 136 133 130 126 125 122 120 116 126 122 117 111 114 117 118 113 107 99 90 82 79 77 69 58 35 341 311 334 63 93 51 52 52 36 27 30 32
131 139 144 141 140 144 141 138 134 131 131 128 124 113 104 100 106 106 105 119 111 110 107 104 97 88 82 68 53 34 0 328 325 331 311 193 69 45 42 27 28 14 23
130 143 146 144 142 146 145 141 138 139 138 134 129 117 107 101 97 101 95 98 103 99 96 95 86 82 68 57 45 24 1 338 329 331 326 48 47 35 38 29 27 22 8
133 153 144 146 143 148 148 144 143 144 144 147 139 128 125 115 104 100 95 92 93 100 93 88 88 76 67 54 35 13 360 340 326 320 68 52 37 36 39 32 25 23 17
143 149 141 145 146 151 152 151 149 150 159 164 140 137 132 117 110 103 93 96 98 95 96 92 88 80 68 55 35 14 357 336 310 109 71 62 46 40 44 40 32 26 21
156 129 147 145 149 155 159 160 160 157 164 156 134 126 118 115 115 106 101 100 100 102 100 98 93 84 68 52 31 9 357 347 3 46 70 58 49 39 39 35 26 22 25
124 137 145 150 157 160 167 166 152 148 136 123 118 114 115 125 118 112 109 107 105 103 102 95 90 82 74 58 29 6 352 348 76 54 67 57 45 39 38 34 38 33 29
126 137 143 159 160 132 125 125 123 120 122 123 122 117 125 123 119 118 114 114 114 111 108 102 95 91 84 68 36 353 345 340 50 59 58 48 46 43 41 42 36 35 36
129 139 146 150 142 134 131 126 126 127 128 127 120 123 129 124 123 126 122 120 120 118 112 107 102 98 95 86 39 352 340 333 74 70 52 49 49 48 42 41 40 39 43
142 151 148 150 144 137 128 131 125 129 128 125 127 135 142 140 146 136 110 128 124 120 121 121 123 122 120 121 90 332 309 62 73 66 47 48 51 51 46 45 48 48 53
158 163 155 154 153 142 143 144 142 142 146 146 154 166 182 157 149 125 127 132 131 135 140 154 176 182 212 216 177 297 37 87 77 77 47 50 49 50 50 46 50 48 51
159 161 166 155 150 153 148 159 159 166 167 157 163 189 188 118 118 128 143 148 155 171 186 185 192 207 28 26 50 48 283 96 90 82 62 57 51 50 51 48 52 56 53
167 168 168 160 160 171 155 173 170 179 178 162 169 198 124 137 161 158 175 185 184 167 172 155 79 105 83 57 71 29 14 110 109 106 82 70 55 48 49 48 50 57 59
174 174 177 168 170 184 166 173 179 188 176 169 166 156 143 167 180 167 141 154 183 130 153 110 142 140 109 94 89 90 57 71 122 118 106 89 74 60 51 51 50 61 60
180 182 179 179 177 185 174 176 181 178 162 161 158 167 171 157 155 144 138 136 122 158 144 139 151 152 120 115 82 68 69 62 71 125 132 104 94 84 68 58 56 55 55
179 177 185 178 180 182 184 174 170 165 163 159 162 165 177 138 159 143 165 150 150 93 91 87 91 114 142 132 126 120 101 91 67 71 137 137 118 101 87 73 65 58 51
177 177 182 185 181 180 184 177 178 168 158 164 156 155 162 142 165 155 149 155 124 134 170 163 181 176 155 153 164 159 112 106 109 91 58 83 149 124 98 93 83 74 59
182 176 183 185 182 182 183 174 178 158 164 162 144 156 158 155 161 160 155 131 142 167 153 167 160 147 148 140 135 111 125 133 155 103 127 119 58 62 133 110 100 88 74
180 174 176 178 175 177 173 172 183 156 176 155 159 161 160 164 167 168 136 135 182 155 153 155 150 151 165 160 142 121 106 100 111 131 158 123 120 98 64 138 135 106 84
177 174 176 172 170 173 174 182 181 173 177 164 164 154 160 167 179 166 131 151 194 151 168 137 121 135 101 124 101 102 91 92 146 143 145 106 120 116 94 48 70 122 126
181 171 175 179 167 176 175 184 182 175 177 167 161 151 166 168 172 168 148 175 184 139 135 151 157 161 141 178 164 167 162 178 201 210 131 119 62 67 118 92 67 60 36
185 172 175 180 174 173 171 180 173 175 159 168 163 158 173 167 171 176 152 166 165 127 145 173 180 145 143 257 233 214 191 179 141 169 147 122 151 102 46 131 110 90 71
180 168 172 178 173 177 176 180 186 190 180 176 164 164 168 168 176 172 162 148 147 146 153 164 185 184 140 158 207 228 45 78 182 149 176 139 147 154 125 22 124 118 101
173 167 170 175 173 177 186 184 183 197 177 167 159 165 166 168 175 165 159 148 156 140 138 149 133 161 171 150 187 159 194 149 88 95 154 152 192 151 151 153 78 110 106
163 142 164 164 176 179 184 182 185 186 175 171 171 173 170 171 172 171 161 160 156 142 132 127 144 159 140 73 90 69 133 155 172 123 135 140 151 171 138 138 161 135 127